FW8945 Weather Reports


time (UTC)temp
F
wind
direction
speed
knots
gust
knots
rain 1hr
in
rain 24hr
in
rain mn
in
humidity
%
barometer
mb
20260510174558 72 0 0.0 7.0 0.00 0.18 0.00 64 1010.8
20260510173105 72 0 0.0 7.0 0.00 0.18 0.00 66 1010.7
20260510171557 70 0 0.0 3.5 0.00 0.18 0.00 67 1010.8
20260510170106 69 0 0.0 6.1 0.00 0.18 0.00 70 1010.9
20260510164553 67 0 0.0 5.2 0.00 0.18 0.00 72 1011.0
20260510163054 65 0 0.0 6.1 0.00 0.18 0.00 77 1011.2
20260510161555 64 0 0.0 3.5 0.00 0.18 0.00 79 1011.3
20260510160052 63 0 0.0 0.9 0.00 0.18 0.00 78 1011.4
20260510154554 62 0 0.0 0.9 0.00 0.18 0.00 82 1011.3
20260510153054 60 0 0.0 3.5 0.00 0.18 0.00 83 1011.6
20260510151558 59 0 0.9 4.3 0.00 0.18 0.00 85 1011.6
20260510150055 58 138 0.0 3.5 0.00 0.18 0.00 87 1011.6
20260510144555 57 135 0.0 4.3 0.00 0.18 0.00 87 1011.9
20260510143054 56 0 0.0 2.6 0.00 0.18 0.00 89 1011.6
20260510141602 56 0 0.0 2.6 0.00 0.18 0.00 91 1011.6
20260510140056 55 171 0.0 0.0 0.00 0.18 0.00 91 1011.6
20260510134604 54 0 0.0 1.7 0.00 0.18 0.00 93 1011.5
20260510133110 54 0 0.0 0.0 0.00 0.18 0.00 93 1011.6
20260510131603 53 0 0.9 3.5 0.00 0.18 0.00 93 1011.6
20260510130058 53 0 0.0 0.0 0.00 0.18 0.00 94 1011.2
20260510124558 52 0 0.0 0.0 0.00 0.18 0.00 94 1011.0
20260510123104 52 0 0.0 0.0 0.00 0.18 0.00 94 1011.1
20260510121553 52 0 0.0 0.0 0.00 0.18 0.00 94 1010.9
20260510120055 52 0 0.0 0.0 0.00 0.18 0.00 94 1010.9
20260510114554 52 0 0.0 0.0 0.00 0.18 0.00 94 1010.5
20260510113055 52 0 0.0 0.0 0.00 0.18 0.00 95 1010.6
20260510111559 51 0 0.0 0.0 0.00 0.18 0.00 94 1010.4
20260510110054 51 0 0.0 0.0 0.00 0.18 0.00 94 1010.2
20260510104556 51 0 0.0 0.0 0.00 0.18 0.00 94 1010.1
20260510103059 51 0 0.0 0.0 0.00 0.18 0.00 94 1009.8
20260510101555 51 0 0.0 0.0 0.00 0.18 0.00 94 1010.0
20260510100057 51 0 0.0 0.0 0.00 0.18 0.00 94 1010.0
20260510094552 51 0 0.0 0.0 0.00 0.18 0.00 94 1010.2
20260510093054 51 0 0.0 0.0 0.00 0.18 0.00 94 1009.9
20260510091558 51 0 0.0 0.0 0.00 0.18 0.00 94 1010.1
20260510090112 51 0 0.0 0.0 0.00 0.18 0.00 94 1010.2
20260510084559 51 0 0.0 0.0 0.00 0.18 0.00 94 1010.4
20260510083057 51 0 0.0 1.7 0.00 0.18 0.00 94 1010.4
20260510081555 51 0 0.0 3.5 0.00 0.18 0.00 94 1010.4
20260510080052 51 355 0.9 6.1 0.00 0.18 0.00 94 1010.2
20260510074554 52 0 0.0 0.0 0.00 0.18 0.00 94 1009.5
20260510073111 52 0 0.0 0.0 0.00 0.18 0.00 94 1009.6
20260510071605 51 0 0.0 0.0 0.00 0.18 0.00 94 1009.4
20260510070053 52 0 0.0 0.0 0.00 0.18 0.00 94 1009.5
20260510064601 52 0 0.0 0.0 0.00 0.18 0.00 94 1009.6
20260510063053 51 0 0.0 0.0 0.00 0.18 0.00 94 1009.7
20260510061556 51 0 0.0 0.0 0.00 0.18 0.00 94 1009.5
20260510060056 51 0 0.0 0.0 0.00 0.18 0.00 94 1009.3
20260510054552 51 0 0.0 0.0 0.00 0.18 0.00 94 1009.3
20260510053056 51 0 0.0 0.0 0.00 0.18 0.00 93 1009.3
20260510051557 51 0 0.0 0.0 0.00 0.18 0.00 94 1009.5
20260510050057 51 0 0.0 0.0 0.00 0.18 0.00 94 1009.6
20260510044555 51 0 0.0 0.0 0.00 0.18 0.00 94 1009.6
20260510043107 51 0 0.0 0.0 0.00 0.18 0.00 94 1009.5
20260510041559 50 0 0.0 0.0 0.00 0.18 0.00 94 1009.6
20260510040110 50 0 0.0 0.0 0.00 0.18 0.00 93 1009.4
20260510034552 49 0 0.0 0.0 0.00 0.18 0.18 93 1009.5
20260510033054 49 0 0.0 0.0 0.00 0.18 0.18 93 1009.5
20260510031557 49 0 0.0 0.0 0.00 0.18 0.18 92 1009.2
20260510030056 50 0 0.0 0.0 0.00 0.18 0.18 92 1009.2
20260510024553 50 0 0.0 0.0 0.00 0.18 0.18 92 1009.2
20260510023054 50 0 0.0 0.0 0.00 0.18 0.18 92 1009.3
20260510021554 50 0 0.0 0.0 0.00 0.18 0.18 92 1009.3
20260510020053 51 0 0.0 0.0 0.00 0.18 0.18 92 1009.3
20260510014606 51 0 0.0 0.0 0.00 0.18 0.18 92 1009.2
20260510013054 51 0 0.0 0.0 0.00 0.18 0.18 91 1009.3
20260510011557 51 0 0.0 0.0 0.00 0.18 0.18 91 1009.1
20260510010056 52 0 0.0 0.0 0.00 0.18 0.18 91 1008.9
20260510004559 52 0 0.0 0.0 0.00 0.18 0.18 91 1008.7
20260510003106 53 0 0.0 0.0 0.00 0.18 0.18 91 1008.6
20260510001557 53 0 0.0 0.0 0.00 0.18 0.18 90 1008.8
20260510000059 54 0 0.0 0.0 0.00 0.18 0.18 91 1008.7
20260509234602 54 0 0.0 0.0 0.00 0.18 0.18 91 1008.3
20260509233058 55 0 0.0 0.0 0.01 0.18 0.18 91 1008.3
20260509231600 55 0 0.0 0.0 0.02 0.18 0.18 91 1008.2
20260509230058 55 0 0.0 0.0 0.03 0.18 0.18 92 1008.2
20260509224559 55 0 0.0 0.0 0.04 0.18 0.18 91 1008.6
20260509223059 55 0 0.0 0.0 0.05 0.17 0.17 92 1008.7
20260509221605 54 0 0.0 0.0 0.06 0.16 0.16 91 1008.5
20260509220100 54 0 0.0 0.9 0.07 0.15 0.15 91 1008.6
20260509214607 54 0 0.0 0.0 0.08 0.14 0.14 91 1009.0
20260509213101 54 0 0.0 2.6 0.07 0.12 0.12 90 1008.8
20260509211600 54 0 0.0 0.0 0.05 0.10 0.10 89 1008.9
20260509210115 55 0 0.0 0.0 0.04 0.08 0.08 90 1008.9
20260509204600 55 0 0.0 0.0 0.03 0.06 0.06 89 1008.9
20260509203059 55 0 0.0 0.0 0.03 0.05 0.05 89 1008.9
20260509201601 55 0 0.0 0.0 0.03 0.05 0.05 87 1009.0
20260509200104 55 0 0.0 0.0 0.02 0.04 0.04 85 1009.2
20260509194558 56 0 0.0 3.5 0.01 0.03 0.03 83 1009.6
20260509193058 57 0 0.0 3.5 0.00 0.02 0.02 82 1009.3
20260509191601 57 0 0.0 0.0 0.00 0.02 0.02 83 1009.2
20260509190108 57 0 0.0 3.5 0.01 0.02 0.02 82 1009.2
20260509184554 56 0 0.0 0.0 0.02 0.02 0.02 82 1009.1
20260509183057 57 332 1.7 7.8 0.02 0.02 0.02 78 1009.3
20260509181602 58 0 0.0 4.3 0.02 0.02 0.02 77 1009.6